Location: Fort Frances
(48.6170°N, 93.4170°W)
Time: 18:47:35
(UTC-05:00)

ISS - All Passes

Search period start: 24 June 2016 00:00
Search period end: 04 July 2016 00:00
Orbit: 402 x 404 km, 51.6° (Epoch: 24 June)

Date Brightness Start Highest point End Pass type
(mag) Time Alt. Az. Time Alt. Az. Time Alt. Az.
24 Jun - 11:04:32 10° SSW 11:07:11 23° SE 11:09:51 10° E daylight
24 Jun - 12:40:06 10° WSW 12:43:22 82° NNW 12:46:40 10° ENE daylight
24 Jun - 14:16:52 10° WNW 14:20:03 47° N 14:23:14 10° ENE daylight
24 Jun - 15:53:26 10° WNW 15:56:43 82° NNE 16:00:00 10° ESE daylight
24 Jun - 17:30:14 10° W 17:32:54 23° SW 17:35:34 10° SSE daylight
25 Jun - 10:12:53 10° S 10:14:41 14° SE 10:16:28 10° ESE daylight
25 Jun - 11:47:24 10° WSW 11:50:38 68° SSE 11:53:54 10° ENE daylight
25 Jun - 13:24:01 10° W 13:27:12 49° N 13:30:24 10° ENE daylight
25 Jun - 15:00:41 10° WNW 15:03:56 61° NNE 15:07:11 10° E daylight
25 Jun - 16:37:14 10° WNW 16:40:19 37° SSW 16:43:22 10° SE daylight
26 Jun - 10:54:51 10° SW 10:57:57 43° SSE 11:01:06 10° ENE daylight
26 Jun - 12:31:08 10° W 12:34:23 57° NNW 12:37:37 10° ENE daylight
26 Jun - 14:07:54 10° WNW 14:11:07 51° N 14:14:19 10° E daylight
26 Jun - 15:44:24 10° WNW 15:47:39 60° SSW 15:50:53 10° SE daylight
26 Jun - 17:22:11 10° WSW 17:23:33 12° SW 17:24:53 10° SSW daylight
27 Jun - 10:02:32 10° SSW 10:05:20 26° SE 10:08:09 10° E daylight
27 Jun - 11:38:18 10° WSW 11:41:34 75° NNW 11:44:50 10° ENE daylight
27 Jun - 13:15:05 10° WNW 13:18:15 47° N 13:21:27 10° ENE daylight
27 Jun - 14:51:37 10° WNW 14:54:54 90° WNW 14:58:11 10° ESE daylight
27 Jun - 16:28:32 10° W 16:31:02 20° SW 16:33:30 10° S daylight
28 Jun - 09:10:38 10° S 09:12:46 16° SE 09:14:55 10° E daylight
28 Jun - 10:45:32 10° WSW 10:48:48 77° SSE 10:52:04 10° ENE daylight
28 Jun - 12:22:12 10° W 12:25:23 48° N 12:28:35 10° ENE daylight
28 Jun - 13:58:51 10° WNW 14:02:07 66° NNE 14:05:22 10° E daylight
28 Jun - 15:35:27 10° W 15:38:26 32° SW 15:41:23 10° SSE daylight
29 Jun - 09:52:54 10° SW 09:56:04 49° SSE 09:59:15 10° ENE daylight
29 Jun - 11:29:18 10° W 11:32:32 54° N 11:35:46 10° ENE daylight
29 Jun - 13:06:03 10° WNW 13:09:16 53° N 13:12:29 10° E daylight
29 Jun - 14:42:33 10° WNW 14:45:45 52° SSW 14:48:56 10° SE daylight
29 Jun - 16:21:12 10° SW 16:21:34 10° SW 16:21:58 10° SW daylight
30 Jun - 09:00:29 10° SSW 09:03:24 30° SE 09:06:20 10° E daylight
30 Jun - 10:36:25 10° W 10:39:41 69° NNW 10:42:57 10° ENE daylight
30 Jun - 12:13:12 10° WNW 12:16:24 47° N 12:19:35 10° E daylight
30 Jun - 13:49:43 10° WNW 13:53:01 81° SSW 13:56:16 10° ESE daylight
30 Jun - 15:26:49 10° W 15:29:04 17° SW 15:31:18 10° S daylight
01 Jul - 08:08:24 10° S 08:10:47 19° SE 08:13:11 10° E daylight
01 Jul - 09:43:36 10° WSW 09:46:52 86° SSE 09:50:09 10° ENE daylight
01 Jul - 11:20:19 10° WNW 11:23:30 47° N 11:26:41 10° ENE daylight
01 Jul - 12:56:55 10° WNW 13:00:12 72° NNE 13:03:28 10° ESE daylight
01 Jul - 14:33:35 10° W 14:36:27 28° SW 14:39:18 10° SSE daylight
02 Jul - 07:17:10 10° SSE 07:18:13 11° SE 07:19:17 10° ESE daylight
02 Jul - 08:50:53 10° SW 08:54:05 57° SSE 08:57:19 10° ENE daylight
02 Jul - 10:27:23 10° W 10:30:36 52° N 10:33:49 10° ENE daylight
02 Jul - 12:04:06 10° WNW 12:07:20 56° NNE 12:10:34 10° E daylight
02 Jul - 13:40:37 10° WNW 13:43:46 45° SSW 13:46:55 10° SE daylight
03 Jul - 07:58:21 10° SW 08:01:22 35° SSE 08:04:24 10° E daylight
03 Jul - 09:34:28 10° W 09:37:43 63° NNW 09:40:58 10° ENE daylight
03 Jul - 11:11:15 10° WNW 11:14:26 48° N 11:17:38 10° E daylight
03 Jul - 12:47:45 10° WNW 12:51:01 72° SSW 12:54:16 10° ESE daylight
03 Jul - 14:25:03 10° W 14:27:00 15° SW 14:28:57 10° S daylight
